Location: Musselshell
(46.5176°N, 108.0911°W)
Time: 09:52:15
(UTC+00:00)

SEEDS - Visible Passes

Search period start: 30 June 2022 00:00
Search period end: 10 July 2022 00:00
Orbit: 580 x 599 km, 97.6° (Epoch: 29 June)

Date Brightness Start Highest point End Pass type
(mag) Time Alt. Az. Time Alt. Az. Time Alt. Az.
04 Jul ? 10:14:07 10° ENE 10:15:44 12° E 10:17:21 10° ESE visible
05 Jul ? 10:21:20 10° NE 10:23:39 15° E 10:25:57 10° SE visible
06 Jul ? 10:28:45 10° NE 10:31:33 17° E 10:34:20 10° SE visible
07 Jul ? 10:36:17 10° NE 10:39:26 21° E 10:42:34 10° SE visible
08 Jul ? 10:43:52 10° NE 10:47:18 25° E 10:50:43 10° SSE visible
09 Jul ? 10:51:31 10° NNE 10:55:11 30° E 10:58:49 10° SSE visible
